Location: Flotzheim
(48.8375°N, 10.8136°E)
Time: 17:32:17
(UTC+00:00)

Aureole 2 Rocket - Pass Details

Date: 23 January 2021
Orbit: 285 x 373 km, 73.9° (Epoch: 01 March)

Event Time Altitude Azimuth Distance (km) Brightness Sun altitude
Rises 17:52:12 0° 227° (SW) 2,227 6.9 -18.2°
Maximum altitude 17:57:02 27° 301° (WNW) 779 4.1 -19.0°
Enters shadow 17:59:06 14° 355° (N) 1,197 4.5 -19.3°
